When you browse on this site, cookies collect data to enhance your experience and personalize the content and advertising you see.
Visit our Privacy Policy to learn more. By continuing to use the site, you agree to this use of cookies and data.
  • In Czech Republic
  • List of Countries
  • For 7 days
  • Water Temperature
  • Satellite Maps
  • Weather Map
  • Weather Widgets
  • user-avatar
    Login

    Hourly Weather Puebla

    Today, 25 March, Monday

    Time Temperature Precipitation Wind Pressure Humidity
    00:00 +19°C° 0 mm 1 mps 590 mmHg 56%
    01:00 +18°C° 0 mm 1 mps 590 mmHg 60%
    02:00 +15°C° 0 mm 0 mps 589 mmHg 63%
    03:00 +15°C° 0 mm 0 mps 589 mmHg 65%
    04:00 +15°C° 0 mm 1 mps 589 mmHg 67%
    05:00 +15°C° 0 mm 1 mps 589 mmHg 69%
    06:00 +16°C° 0 mm 1 mps 590 mmHg 62%
    07:00 +19°C° 0 mm 1 mps 591 mmHg 55%
    08:00 +20°C° 0 mm 1 mps 592 mmHg 48%
    09:00 +22°C° 0 mm 1 mps 592 mmHg 38%
    10:00 +24°C° 0 mm 1 mps 593 mmHg 28%
    11:00 +26°C° 0 mm 2 mps 593 mmHg 17%
    12:00 +27°C° 0 mm 2 mps 593 mmHg 15%
    13:00 +28°C° 0 mm 2 mps 593 mmHg 14%
    14:00 +28°C° 0 mm 2 mps 593 mmHg 12%
    15:00 +28°C° 0 mm 3 mps 592 mmHg 15%
    16:00 +27°C° 0 mm 3 mps 592 mmHg 19%
    17:00 +26°C° 0 mm 4 mps 591 mmHg 23%
    18:00 +23°C° 0 mm 4 mps 591 mmHg 33%
    19:00 +21°C° 0 mm 4 mps 591 mmHg 43%
    20:00 +19°C° 0 mm 4 mps 591 mmHg 53%
    21:00 +18°C° 0 mm 4 mps 591 mmHg 56%
    22:00 +17°C° 0 mm 4 mps 591 mmHg 59%
    23:00 +17°C° 0 mm 4 mps 591 mmHg 62%

    Tomorrow, 26 March, Tuesday

    Time Temperature Precipitation Wind Pressure Humidity
    00:00 +16°C° 0 mm 3 mps 591 mmHg 63%
    01:00 +14°C° 0 mm 3 mps 590 mmHg 65%
    02:00 +14°C° 0 mm 2 mps 589 mmHg 66%
    03:00 +13°C° 0 mm 3 mps 589 mmHg 63%
    04:00 +12°C° 0 mm 3 mps 589 mmHg 61%
    05:00 +11°C° 0 mm 3 mps 588 mmHg 59%
    06:00 +13°C° 0 mm 3 mps 590 mmHg 47%
    07:00 +16°C° 0 mm 3 mps 591 mmHg 35%
    08:00 +18°C° 0 mm 3 mps 592 mmHg 23%
    09:00 +20°C° 0 mm 3 mps 593 mmHg 19%
    10:00 +22°C° 0 mm 3 mps 593 mmHg 15%
    11:00 +25°C° 0 mm 3 mps 594 mmHg 11%
    12:00 +25°C° 0 mm 4 mps 594 mmHg 11%
    13:00 +26°C° 0 mm 4 mps 593 mmHg 11%
    14:00 +27°C° 0 mm 4 mps 593 mmHg 11%
    15:00 +25°C° 0 mm 4 mps 592 mmHg 16%
    16:00 +23°C° 0 mm 5 mps 592 mmHg 21%
    17:00 +22°C° 0 mm 6 mps 592 mmHg 26%
    18:00 +20°C° 0 mm 5 mps 592 mmHg 36%
    19:00 +17°C° 0 mm 5 mps 592 mmHg 45%
    20:00 +15°C° 0 mm 5 mps 592 mmHg 55%
    21:00 +15°C° 0 mm 4 mps 592 mmHg 59%
    22:00 +14°C° 0 mm 4 mps 592 mmHg 62%
    23:00 +13°C° 0 mm 4 mps 592 mmHg 66%

    Day after tomorrow, 27 March, Wednesday

    Time Temperature Precipitation Wind Pressure Humidity
    00:00 +12°C° 0 mm 3 mps 591 mmHg 67%
    01:00 +12°C° 0 mm 3 mps 590 mmHg 69%
    02:00 +11°C° 0 mm 3 mps 590 mmHg 70%
    03:00 +10°C° 0 mm 3 mps 589 mmHg 68%
    04:00 +10°C° 0 mm 3 mps 589 mmHg 66%
    05:00 +9°C° 0 mm 3 mps 589 mmHg 63%
    06:00 +11°C° 0 mm 3 mps 590 mmHg 51%
    07:00 +14°C° 0 mm 3 mps 592 mmHg 38%
    08:00 +17°C° 0 mm 3 mps 593 mmHg 26%
    09:00 +19°C° 0 mm 3 mps 594 mmHg 21%
    10:00 +21°C° 0 mm 3 mps 594 mmHg 17%
    11:00 +24°C° 0 mm 3 mps 595 mmHg 12%
    12:00 +25°C° 0 mm 3 mps 594 mmHg 12%
    13:00 +26°C° 0 mm 3 mps 594 mmHg 12%
    14:00 +26°C° 0 mm 2 mps 593 mmHg 12%
    15:00 +25°C° 0 mm 3 mps 593 mmHg 15%
    16:00 +25°C° 0 mm 3 mps 593 mmHg 19%
    17:00 +23°C° 0 mm 4 mps 592 mmHg 22%
    18:00 +21°C° 0 mm 4 mps 592 mmHg 32%
    19:00 +19°C° 0 mm 3 mps 592 mmHg 42%
    20:00 +17°C° 0 mm 3 mps 592 mmHg 52%
    21:00 +16°C° 0 mm 3 mps 592 mmHg 57%
    22:00 +14°C° 0 mm 3 mps 592 mmHg 62%
    23:00 +14°C° 0 mm 3 mps 592 mmHg 67%

    28 March, Thursday

    Time Temperature Precipitation Wind Pressure Humidity
    00:00 +13°C° 0 mm 3 mps 591 mmHg 68%
    01:00 +12°C° 0 mm 3 mps 590 mmHg 70%
    02:00 +13°C° 0 mm 2 mps 590 mmHg 71%
    03:00 +12°C° 0 mm 2 mps 589 mmHg 69%
    04:00 +12°C° 0 mm 2 mps 589 mmHg 67%
    05:00 +12°C° 0 mm 2 mps 589 mmHg 65%
    06:00 +14°C° 0 mm 2 mps 590 mmHg 53%
    07:00 +16°C° 0 mm 2 mps 592 mmHg 42%
    08:00 +18°C° 0 mm 2 mps 593 mmHg 31%
    09:00 +20°C° 0 mm 2 mps 593 mmHg 25%
    10:00 +23°C° 0 mm 2 mps 594 mmHg 20%
    11:00 +25°C° 0 mm 2 mps 594 mmHg 14%
    12:00 +26°C° 0 mm 2 mps 593 mmHg 13%
    13:00 +26°C° 0 mm 2 mps 593 mmHg 13%
    14:00 +27°C° 0 mm 3 mps 593 mmHg 12%
    15:00 +26°C° 0 mm 3 mps 592 mmHg 14%
    16:00 +26°C° 0 mm 4 mps 592 mmHg 15%
    17:00 +25°C° 0 mm 4 mps 592 mmHg 16%
    18:00 +22°C° 0 mm 3 mps 592 mmHg 21%
    19:00 +20°C° 0 mm 2 mps 591 mmHg 26%
    20:00 +19°C° 0 mm 1 mps 591 mmHg 31%
    21:00 +19°C° 0 mm 1 mps 591 mmHg 35%
    22:00 +18°C° 0 mm 1 mps 591 mmHg 38%
    23:00 +18°C° 0 mm 1 mps 590 mmHg 41%

    29 March, Friday

    Time Temperature Precipitation Wind Pressure Humidity
    00:00 +16°C° 0 mm 1 mps 590 mmHg 43%
    01:00 +16°C° 0 mm 1 mps 589 mmHg 45%
    02:00 +14°C° 0 mm 0 mps 588 mmHg 47%
    03:00 +14°C° 0 mm 0 mps 588 mmHg 48%
    04:00 +13°C° 0 mm 0 mps 588 mmHg 50%
    05:00 +13°C° 0 mm 0 mps 588 mmHg 51%
    06:00 +15°C° 0 mm 0 mps 589 mmHg 45%
    07:00 +19°C° 0 mm 1 mps 590 mmHg 39%
    08:00 +20°C° 0 mm 1 mps 591 mmHg 33%
    09:00 +22°C° 0 mm 1 mps 591 mmHg 29%
    10:00 +24°C° 0 mm 2 mps 592 mmHg 25%
    11:00 +26°C° 0 mm 2 mps 592 mmHg 21%
    12:00 +27°C° 0 mm 3 mps 591 mmHg 20%
    13:00 +27°C° 0 mm 3 mps 591 mmHg 20%
    14:00 +28°C° 0 mm 4 mps 591 mmHg 19%
    15:00 +27°C° 0 mm 4 mps 590 mmHg 21%
    16:00 +26°C° 0 mm 4 mps 590 mmHg 24%
    17:00 +25°C° 0 mm 5 mps 589 mmHg 26%
    18:00 +23°C° 0 mm 4 mps 589 mmHg 29%
    19:00 +21°C° 0 mm 2 mps 589 mmHg 32%
    20:00 +21°C° 0 mm 1 mps 589 mmHg 34%
    21:00 +21°C° 0 mm 1 mps 589 mmHg 36%
    22:00 +20°C° 0 mm 1 mps 589 mmHg 37%
    23:00 +18°C° 0 mm 2 mps 589 mmHg 39%

    30 March, Saturday

    Time Temperature Precipitation Wind Pressure Humidity
    00:00 +19°C° 0 mm 1 mps 588 mmHg 41%
    01:00 +18°C° 0 mm 1 mps 587 mmHg 43%
    02:00 +16°C° 0 mm 1 mps 587 mmHg 45%
    03:00 +16°C° 0 mm 1 mps 587 mmHg 47%
    04:00 +15°C° 0 mm 1 mps 587 mmHg 49%
    05:00 +15°C° 0 mm 1 mps 587 mmHg 51%
    06:00 +16°C° 0 mm 1 mps 588 mmHg 48%
    07:00 +19°C° 0 mm 1 mps 589 mmHg 46%
    08:00 +20°C° 0 mm 2 mps 590 mmHg 43%
    09:00 +23°C° 0 mm 2 mps 590 mmHg 39%
    10:00 +24°C° 0 mm 3 mps 590 mmHg 35%
    11:00 +26°C° 0 mm 3 mps 591 mmHg 30%
    12:00 +27°C° 0 mm 4 mps 590 mmHg 29%
    13:00 +28°C° 0 mm 4 mps 590 mmHg 27%
    14:00 +28°C° 0 mm 5 mps 589 mmHg 26%
    15:00 +27°C° 0 mm 5 mps 589 mmHg 27%
    16:00 +27°C° 0 mm 5 mps 589 mmHg 27%
    17:00 +26°C° 0 mm 5 mps 589 mmHg 28%
    18:00 +25°C° 0.1 mm 4 mps 589 mmHg 29%
    19:00 +24°C° 0.1 mm 2 mps 590 mmHg 31%
    20:00 +23°C° 0.1 mm 1 mps 590 mmHg 32%
    21:00 +22°C° 0 mm 1 mps 590 mmHg 33%
    22:00 +22°C° 0 mm 1 mps 590 mmHg 35%
    23:00 +21°C° 0 mm 1 mps 590 mmHg 37%
    Show more